Regional Weather Roundup
Issued by NWS

Home | Current Version | Previous Version | Graphics & Text | Print | Product List | Glossary On
Versions: 1 2 3 4 5 6 7 8 9 10 11 12 13 14 15 16 17 18 19 20 21 22 23 24 25 26 27 28 29 30 31 32 33 34 35 36 37 38 39 40 41 42 43 44 45 46 47 48 49 50
004
ASUS44 KLIX 180601
RWRLA
LOUISIANA WEATHER ROUNDUP
NATIONAL WEATHER SERVICE NEW ORLEANS LA
1200 AM CST THU DEC 18 2014

NOTE: "FAIR" INDICATES FEW OR NO CLOUDS BELOW 12,000 FEET WITH NO
      SIGNIFICANT WEATHER AND/OR OBSTRUCTIONS TO VISIBILITY.
      SKY/WX - SKY CONDITION AND SIGNIFICANT WEATHER.
      TMP - AIR TEMPERATURE.    DP   - DEWPOINT TEMPERATURE.
      RH  - RELATIVE HUMIDITY.  PRES - PRESSURE.
      HX  - HEAT INDEX.         WCI  - WIND CHILL INDEX.

*  THESE STATIONS ARE NOT NWS OR FAA STATIONS AND ARE NOT UNDER
   NWS QUALITY CONTROL.

LAZ040-048-061>063-065-066-069-180700-
SOUTHEAST LOUISIANA

CITY           SKY/WX    TMP DP  RH WIND       PRES   REMARKS
N.O. AUDUBON     N/A     53  47  79 MISG        N/A
6HR MIN TEMP:  50; 6HR MAX TEMP:  56;

N.O. INTL ARPT CLOUDY    52  41  66 NE3       30.17F
6HR MIN TEMP:  50; 6HR MAX TEMP:  55;

N.O. LAKEFRONT CLOUDY    54  46  74 E3        30.19F
6HR MIN TEMP:  53; 6HR MAX TEMP:  55;

N.O. DOWNTOWN* FAIR      55  39  54 CALM      30.18F
6HR MIN TEMP:  55; 6HR MAX TEMP:  55;

SLIDELL        CLOUDY    45  41  86 CALM      30.18F
6HR MIN TEMP:  44; 6HR MAX TEMP:  49;

BATON ROUGE    PTCLDY    45  40  82 CALM      30.18S
6HR MIN TEMP:  45; 6HR MAX TEMP:  51;

BOOTHVILLE     CLOUDY    55  49  80 NE5       30.18F
6HR MIN TEMP:  53; 6HR MAX TEMP:  55;

BELLE CHASSE   CLOUDY    47  44  90 E5        30.17F
6HR MIN TEMP:  46; 6HR MAX TEMP:  51;

BOGALUSA*      NOT AVBL
GALLIANO*      NOT AVBL
NEW ROADS*     NOT AVBL
GONZALES*      NOT AVBL
HAMMOND*       NOT AVBL
HOUMA*         CLOUDY    49  46  90 CALM      30.17S
6HR MIN TEMP:  47; 6HR MAX TEMP:  52;

PORT FOURCHON* CLEAR     59  54  82 E7        30.19S

$$

LAZ041-044-053-054-180700-
SOUTHWEST LOUISIANA

CITY           SKY/WX    TMP DP  RH WIND       PRES   REMARKS
LAKE CHARLES   MOCLDY    51  46  83 E3        30.16R
6HR MIN TEMP:  49; 6HR MAX TEMP:  55;

LAFAYETTE      CLEAR     49  42  77 CALM      30.17S
6HR MIN TEMP:  48; 6HR MAX TEMP:  55;

PATTERSON      MOCLDY    52  45  76 E5        30.17S
6HR MIN TEMP:  50; 6HR MAX TEMP:  54;

SALT POINT       N/A     56  48  74 VRB3      30.15F
6HR MIN TEMP:  53; 6HR MAX TEMP:  57;

NEW IBERIA     CLEAR     47  42  83 CALM      30.18S
6HR MIN TEMP:  47; 6HR MAX TEMP:  56;

CHENAULT AIRPK CLOUDY    52  46  80 E3        30.16S
6HR MIN TEMP:  49; 6HR MAX TEMP:  54;


$$

LAZ027-028-180700-
CENTRAL LOUISIANA

CITY           SKY/WX    TMP DP  RH WIND       PRES   REMARKS
FORT POLK      CLOUDY    50  43  76 E5        30.16S
ALEXANDRIA INT CLOUDY    50  42  74 NE3       30.17S
6HR MIN TEMP:  47; 6HR MAX TEMP:  51;

ALEXANDRIA     CLOUDY    49  42  77 CALM      30.18F
6HR MIN TEMP:  45; 6HR MAX TEMP:  49;


$$

LAZ001-002-180700-
NORTHWEST LOUISIANA

CITY           SKY/WX    TMP DP  RH WIND       PRES   REMARKS
SHREVEPORT     LGT RAIN  45  43  93 E7        30.19F FOG
6HR MIN TEMP:  45; 6HR MAX TEMP:  48; 6HR PCP:  0.13;

BARKSDALE AFB  NOT AVBL
DTN SHREVEPORT LGT RAIN  44  40  85 E3        30.21S
6HR MIN TEMP:  44; 6HR MAX TEMP:  47; 6HR PCP:  0.09;


$$

LAZ014-016-180700-
NORTHEAST LOUISIANA

CITY           SKY/WX    TMP DP  RH WIND       PRES   REMARKS
MONROE         CLOUDY    46  40  79 NE8       30.22F
6HR MIN TEMP:  44; 6HR MAX TEMP:  49;

TALLULAH       CLOUDY    44  39  82 N7        30.21R
6HR MIN TEMP:  42; 6HR MAX TEMP:  50;


$$




USA.gov is the U.S. government's official web portal to all federal, state and local government web resources and services.